[[{"header":{"parameterUnit":"m.s-1","parameterCategory":1,"la1":30.2991,"la2":30.254,"lo1":-89.0895,"lo2":-89.0444,"dy":0.0017,"dx":0.0017,"nx":28,"ny":28,"refTime":"2024-04-22T03:00:00:Z","depth":0,"parameterNumber":2,"parameterNumberName":"U-component_of_WINDS"},"data":[0,0,0,0,0,0,0,0,0,0,0,0,0,0,0,0,0,0,0,0,0,0,0,0,0,0,0,0,0,0,0,0,0,0,0,0,0,0,0,0,0,0,0,0,0,0,0,0,0,0,0,0,0,0,0,0,0,0,-3.2223,-3.2223,0,-3.2259,-3.2259,-3.2259,-3.2152,-3.2149,-3.2146,-3.2143,-3.2181,-3.2185,-3.2189,0,0,0,0,0,0,0,0,0,0,0,0,0,-3.2062,-3.2066,-3.2223,-3.2223,-3.2224,-3.2259,-3.2259,-3.2259,-3.2153,-3.2149,-3.2145,-3.2141,-3.218,-3.2184,-3.2189,0,0,0,0,0,0,0,0,0,0,0,0,0,-3.2119,-3.2067,-3.2223,-3.2175,-3.2171,-3.2258,-3.2259,-3.226,-3.2154,-3.2149,-3.2144,-3.2139,-3.2178,-3.2184,-3.219,-3.2326,0,0,-3.2209,-3.2211,0,0,0,0,0,0,0,0,-3.2116,-3.2125,-3.2181,-3.2178,-3.2174,-3.2196,-3.2216,-3.2282,-3.2155,-3.216,-3.2143,-3.2137,-3.219,-3.2195,-3.2212,-3.2328,-3.233,-3.2209,-3.2213,-3.2215,-3.2217,0,0,0,0,0,0,0,-3.2112,-3.2123,-3.2237,-3.2182,-3.2178,-3.2151,-3.2154,-3.2228,-3.2202,-3.2159,-3.2152,-3.2157,-3.2187,-3.2207,-3.2212,-3.233,-3.2209,-3.2214,-3.2218,-3.2221,-3.2557,-3.2562,0,0,0,0,0,0,-3.2114,-3.212,-3.2236,-3.2238,-3.2132,-3.2158,-3.2161,-3.2194,-3.2201,-3.2198,-3.2161,-3.2152,-3.2199,-3.2205,-3.2213,-3.2371,-3.2215,-3.2221,-3.2225,-3.2552,-3.2558,-3.2564,0,0,0,0,0,0,-3.2111,-3.2125,-3.2234,-3.2177,-3.2189,-3.2166,-3.2204,-3.2197,-3.2217,-3.2203,-3.2198,-3.2186,-3.2195,-3.2205,-3.2298,-3.2371,-3.2224,-3.2229,-3.2546,-3.2554,-3.2561,-3.269,0,0,0,0,0,0,-3.2107,-3.2125,-3.2177,-3.2179,-3.2192,-3.2319,-3.2208,-3.2201,-3.2227,-3.2215,-3.2225,-3.2222,-3.2192,-3.229,-3.2304,-3.2377,-3.2234,-3.2539,-3.2549,-3.2559,-3.2679,-3.2701,-3.272,0,0,0,0,0,-3.2102,-3.2212,-3.218,-3.2194,-3.2256,-3.2323,-3.2331,-3.2294,-3.2234,-3.2285,-3.2276,-3.2221,-3.2361,-3.23,-3.2316,-3.2391,-3.2534,-3.2546,-3.2558,-3.267,-3.2697,-3.272,0,0,0,0,0,0,-3.222,-3.2212,-3.2176,-3.229,-3.2308,-3.2305,-3.2369,-3.2324,-3.236,-3.2348,-3.2301,-3.2304,-3.2406,-3.2408,-3.234,-3.2523,-3.2437,-3.2453,-3.2517,-3.2543,-3.2563,-3.2559,-3.2239,0,0,0,0,0,-3.2259,-3.2314,-3.2304,-3.2406,-3.2417,-3.2392,-3.242,-3.239,-3.2407,-3.2414,-3.2412,-3.2431,-3.2478,-3.2511,-3.2555,-3.2679,-3.2679,-3.2739,-3.276,-3.2777,-3.279,-3.2854,-3.288,-3.2603,-3.2603,-3.2603,0,0,-3.2341,-3.2343,-3.2381,-3.243,-3.244,-3.2498,-3.2399,-3.2465,-3.2507,-3.2424,-3.2511,-3.2511,-3.2529,-3.2638,-3.2686,-3.2643,-3.2867,-3.2792,-3.2805,-3.281,-3.2869,-3.2895,-3.2919,-3.2611,-3.261,-3.2608,0,0,-3.2519,-3.2527,-3.2612,-3.2624,-3.2641,-3.2623,-3.2644,-3.2647,-3.2643,-3.273,-3.2669,-3.2719,-3.2803,-3.2817,-3.2836,-3.3019,-3.2969,-3.3035,-3.3142,-3.3205,-3.3226,-3.3245,-3.3309,-3.3332,-3.3048,-3.3049,-3.3049,0,-3.2618,-3.2702,-3.2661,-3.273,-3.2753,-3.2681,-3.2765,-3.278,-3.281,-3.2828,-3.2779,-3.2882,-3.2889,-3.3,-3.3044,-3.3062,-3.3083,-3.3032,-3.3227,-3.3245,-3.3263,-3.3322,-3.3346,-3.3056,-3.3056,-3.3055,-3.3054,0,-3.2823,-3.2882,-3.2949,-3.2979,-3.3009,-3.3087,-3.3057,-3.3093,-3.306,-3.3048,-3.3136,-3.3143,-3.3185,-3.3209,-3.3179,-3.3316,-3.3288,-3.3235,-3.3147,-3.3297,-3.3352,-3.3375,-3.3067,-3.3065,-3.3062,-3.306,0,0,-3.3075,-3.3081,-3.3106,-3.3118,-3.3131,-3.3176,-3.3249,-3.329,-3.3321,-3.3345,-3.3404,-3.3477,-3.3426,-3.3448,-3.3418,-3.3474,-3.3616,-3.3413,-3.3412,-3.3448,-3.3764,-3.3803,-3.383,-3.3584,-3.3588,-3.3592,-3.3762,0,-3.3248,-3.3373,-3.3338,-3.3463,-3.3516,-3.3448,-3.3512,-3.3527,-3.3517,-3.3561,-3.3551,-3.3602,-3.3533,-3.3545,-3.3597,-3.3588,-3.3678,-3.3575,-3.3638,-3.3641,-3.3633,-3.3859,-3.3901,-3.4061,-3.3784,-3.3787,-3.379,0,-3.3467,-3.3498,-3.3628,-3.363,-3.3651,-3.3709,-3.3743,-3.3786,-3.3801,-3.379,-3.3814,-3.3773,-3.3845,-3.3759,-3.3857,-3.3787,-3.3811,-3.3811,-3.3816,-3.3818,-3.3723,-3.3866,-3.4112,-3.4135,-3.3824,-3.3821,-3.3819,0,-3.3635,-3.3709,-3.3796,-3.3809,-3.3814,-3.3856,-3.3861,-3.3871,-3.3897,-3.3928,-3.3944,-3.3983,-3.4003,-3.4034,-3.4004,-3.3945,-3.4106,-3.4019,-3.4098,-3.4099,-3.4133,-3.4131,-3.4384,-3.4153,-3.4153,-3.4152,-3.4152,0,-3.383,-3.3912,-3.3871,-3.3924,-3.4013,-3.3973,-3.4062,-3.4059,-3.4069,-3.4119,-3.4064,-3.4113,-3.4072,-3.4118,-3.4096,-3.4179,-3.419,-3.4182,-3.4174,-3.4185,-3.4186,-3.4199,-3.4186,-3.4159,-3.4157,-3.4156,-3.4155,0,-3.4032,-3.4008,-3.4097,-3.4096,-3.4097,-3.4163,-3.4161,-3.4209,-3.4196,-3.4261,-3.4274,-3.4253,-3.4304,-3.4278,-3.4331,-3.4316,-3.4423,-3.4402,-3.4417,-3.4411,-3.449,-3.4482,-3.4758,-3.4792,-3.4542,-3.4545,-3.4547,0,-3.4157,-3.4218,-3.4222,-3.4252,-3.426,-3.4309,-3.4335,-3.4298,-3.4327,-3.4349,-3.4395,-3.4441,-3.4475,-3.4559,-3.4548,-3.4588,-3.4566,-3.466,-3.4572,-3.458,-3.4565,-3.456,-3.4565,-3.4677,-3.468,-3.4683,-3.4685,0,-3.4381,-3.4365,-3.4405,-3.4441,-3.4473,-3.45,-3.4521,-3.4549,-3.4512,-3.4548,-3.4598,-3.4625,-3.4679,-3.4724,-3.4759,-3.4763,-3.4718,-3.4713,-3.4733,-3.4743,-3.4749,-3.4744,-3.4463,-3.4706,-3.4704,-3.4703,-3.4701,-3.4701,-3.4546,-3.4596,-3.4606,-3.4652,-3.4664,-3.4685,-3.473,-3.4722,-3.4764,-3.4803,-3.4779,-3.4838,-3.4851,-3.4892,-3.4903,-3.4949,-3.4911,-3.4941,-3.4948,-3.4955,-3.4964,-3.4744,-3.4955,-3.4954,-3.4954,-3.4953,-3.4953,0,-3.4764,-3.4767,-3.481,-3.4841,-3.4877,-3.4831,-3.4853,-3.4885,-3.4938,-3.4954,-3.4988,-3.5046,-3.509,-3.5083,-3.5123,-3.516,-3.514,-3.5172,-3.5167,-3.5169,-3.4997,-3.4974,-3.5187,-3.5187,-3.5187,-3.5187,-3.5187,-3.5187,-3.4881,-3.4963,-3.4949,-3.5036,-3.5039,-3.5095,-3.5111,-3.5131,-3.5143,-3.5209,-3.5245,-3.524,-3.5246,-3.5286,-3.5324,-3.5321,-3.5337,-3.5376,-3.5365,-3.5204,-3.5181,-3.5159,-3.5137,-3.538,-3.5381,-3.5532,-3.5534,-3.5535]},{"header":{"parameterUnit":"m.s-1","parameterCategory":1,"la1":30.2991,"la2":30.254,"lo1":-89.0895,"lo2":-89.0444,"dy":0.0017,"dx":0.0017,"nx":28,"ny":28,"refTime":"2024-04-22T03:00:00:Z","depth":0,"parameterNumber":3,"parameterNumberName":"V-component_of_WINDS"},"data":[0,0,0,0,0,0,0,0,0,0,0,0,0,0,0,0,0,0,0,0,0,0,0,0,0,0,0,0,0,0,0,0,0,0,0,0,0,0,0,0,0,0,0,0,0,0,0,0,0,0,0,0,0,0,0,0,0,0,0.7292,0.7291,0,0.7208,0.7207,0.7206,0.7043,0.704,0.7036,0.7033,0.6954,0.6955,0.6955,0,0,0,0,0,0,0,0,0,0,0,0,0,0.7317,0.7317,0.7292,0.7291,0.729,0.7208,0.7207,0.7206,0.7043,0.704,0.7036,0.7032,0.6953,0.6954,0.6955,0,0,0,0,0,0,0,0,0,0,0,0,0,0.7277,0.7317,0.7292,0.7199,0.7189,0.7209,0.7207,0.7206,0.7044,0.7039,0.7035,0.703,0.6953,0.6954,0.6956,0.7061,0,0,0.696,0.696,0,0,0,0,0,0,0,0,0.728,0.7276,0.7213,0.7205,0.7195,0.7131,0.7186,0.7157,0.7046,0.71,0.7033,0.7028,0.7017,0.7013,0.7008,0.7057,0.7054,0.696,0.6961,0.6961,0.6962,0,0,0,0,0,0,0,0.7282,0.7279,0.7259,0.7213,0.7201,0.7163,0.7152,0.718,0.7087,0.7095,0.7082,0.7074,0.7011,0.7007,0.7005,0.7052,0.696,0.6961,0.6962,0.6962,0.7185,0.719,0,0,0,0,0,0,0.7298,0.7282,0.7261,0.7256,0.7226,0.7166,0.7154,0.7156,0.7086,0.707,0.7079,0.7067,0.7007,0.7003,0.7001,0.712,0.6961,0.6962,0.6963,0.718,0.7186,0.7191,0,0,0,0,0,0,0.7299,0.7298,0.7265,0.7266,0.7259,0.7171,0.7175,0.7157,0.7153,0.7074,0.7057,0.7091,0.7003,0.6999,0.7047,0.7115,0.6963,0.6964,0.7174,0.7181,0.7189,0.7359,0,0,0,0,0,0,0.7301,0.7299,0.7337,0.7268,0.7259,0.7311,0.7179,0.7159,0.7155,0.7139,0.7081,0.7067,0.6999,0.7046,0.7048,0.7114,0.6965,0.7167,0.7177,0.7186,0.7346,0.7371,0.7392,0,0,0,0,0,0.7302,0.7389,0.7339,0.7338,0.7304,0.7315,0.731,0.7228,0.7161,0.7199,0.7148,0.7069,0.7107,0.7052,0.7053,0.7121,0.7162,0.7174,0.7185,0.7336,0.7366,0.7392,0,0,0,0,0,0,0.747,0.7378,0.7322,0.7389,0.7361,0.7287,0.7332,0.7263,0.7254,0.724,0.7141,0.7129,0.719,0.716,0.71,0.7219,0.7122,0.7135,0.7237,0.7264,0.7287,0.7293,0.6966,0,0,0,0,0,0.7514,0.7528,0.7448,0.7515,0.7504,0.7421,0.7423,0.7362,0.733,0.7317,0.727,0.7243,0.7249,0.7255,0.7256,0.7341,0.7327,0.7388,0.7411,0.743,0.7442,0.7486,0.7513,0.7229,0.7229,0.7229,0,0,0.7607,0.7559,0.7574,0.7548,0.7519,0.7538,0.7412,0.7437,0.7451,0.7322,0.7363,0.7328,0.7291,0.7359,0.7386,0.7335,0.7518,0.7445,0.7461,0.7462,0.7501,0.7528,0.7552,0.7237,0.7235,0.7234,0,0,0.7785,0.7749,0.7801,0.7774,0.7731,0.7676,0.7689,0.7626,0.7597,0.7636,0.754,0.7556,0.7568,0.7546,0.7537,0.7708,0.7635,0.7711,0.7831,0.7875,0.7897,0.7917,0.7979,0.8002,0.7724,0.7724,0.7724,0,0.7906,0.7928,0.7837,0.7868,0.786,0.7743,0.7796,0.7775,0.7736,0.7734,0.7678,0.769,0.7658,0.7718,0.776,0.7756,0.7769,0.7717,0.7901,0.792,0.7936,0.7994,0.8018,0.7734,0.7732,0.7731,0.7731,0,0.8079,0.8097,0.8144,0.8107,0.8105,0.8147,0.8065,0.8073,0.8014,0.7965,0.8008,0.7965,0.7955,0.7965,0.7908,0.8019,0.7989,0.7919,0.7819,0.7975,0.8027,0.8049,0.7747,0.7744,0.7741,0.7739,0,0,0.836,0.8272,0.8291,0.8273,0.8218,0.823,0.8269,0.8257,0.8267,0.8245,0.8275,0.8288,0.8223,0.8213,0.8152,0.8191,0.833,0.8115,0.8113,0.8157,0.8451,0.8505,0.8532,0.8281,0.8285,0.8288,0.8454,0,0.8526,0.8583,0.8503,0.8579,0.8595,0.8484,0.8517,0.8488,0.8444,0.8453,0.8405,0.8416,0.8328,0.8321,0.8355,0.8306,0.8388,0.8293,0.831,0.8312,0.8323,0.8559,0.8615,0.8774,0.8474,0.8478,0.848,0,0.8726,0.8712,0.8789,0.8729,0.8733,0.8764,0.8748,0.8757,0.8723,0.8688,0.8677,0.8604,0.8639,0.8543,0.8591,0.8529,0.8531,0.8509,0.8513,0.8512,0.8406,0.8565,0.8822,0.8846,0.8512,0.8509,0.8507,0,0.8924,0.8924,0.897,0.8958,0.889,0.8914,0.8887,0.8848,0.8846,0.8833,0.8832,0.8824,0.882,0.8817,0.8745,0.8681,0.8803,0.87,0.8776,0.8779,0.8807,0.8806,0.9069,0.8809,0.8808,0.8808,0.8807,0,0.9117,0.9169,0.9058,0.9086,0.9142,0.9051,0.9109,0.9071,0.9037,0.9058,0.8963,0.8985,0.8888,0.89,0.8845,0.8894,0.8893,0.8867,0.8852,0.8875,0.8879,0.8876,0.8863,0.8814,0.8813,0.8812,0.8811,0,0.9347,0.9274,0.9317,0.9249,0.9233,0.9277,0.9219,0.9244,0.9194,0.9222,0.9223,0.9146,0.9155,0.9083,0.908,0.9043,0.9119,0.9084,0.913,0.9119,0.9199,0.9193,0.947,0.9502,0.9222,0.9225,0.9227,0,0.9475,0.9512,0.9447,0.9453,0.9431,0.9442,0.944,0.9353,0.9355,0.9319,0.9349,0.9351,0.9347,0.9368,0.9313,0.9311,0.9276,0.9373,0.9275,0.9298,0.9278,0.9276,0.928,0.9394,0.9397,0.94,0.9402,0,0.971,0.9672,0.9672,0.966,0.966,0.9647,0.9627,0.9638,0.9544,0.9552,0.9559,0.9557,0.9553,0.9557,0.9543,0.9518,0.9446,0.9434,0.9451,0.9476,0.9501,0.9489,0.9186,0.9428,0.9425,0.9423,0.9422,0.9421,0.9892,0.9921,0.9879,0.9883,0.9859,0.9843,0.9863,0.9815,0.982,0.9808,0.9758,0.9775,0.9742,0.9716,0.9697,0.9711,0.9665,0.969,0.9696,0.9704,0.9719,0.9499,0.9709,0.9708,0.9707,0.9706,0.9706,0,1.0123,1.0091,1.0095,1.007,1.0074,1.0003,0.9979,0.9987,1.0003,0.9976,0.9975,0.9985,0.9988,0.9934,0.9931,0.9953,0.9919,0.9955,0.9952,0.9948,0.976,0.9746,0.9982,0.9981,0.9981,0.9981,0.9981,0.9981,1.0243,1.0287,1.0245,1.0277,1.0245,1.026,1.0252,1.0238,1.0216,1.0231,1.0233,1.0196,1.016,1.0153,1.0154,1.0138,1.0141,1.0188,1.0162,0.9988,0.9961,0.9935,0.9921,1.019,1.019,1.0347,1.0349,1.035]}]]